Flag for Germany Weather past 2 weeks in Siegburg, North Rhine-Westphalia, Germany

Now
58 °F

Passing clouds.


Feels Like: 58 °F
Forecast: 46 / 62 °F
Wind: 3 mph from Northwest

Location: Bonn-Hangelar

Current Time: Sep 23, 2014 at 4:53:49 PM

Latest Report: Sep 23, 2014 at 4:00 PM


Visibility: 22 mi

Pressure: 30.13 "Hg

Humidity: 58%

Dew point: 43 °F

Location of SiegburgLocation

Historic Weather in Siegburg — Graph

°F

Siegburg temperature yesterday

Maximum temperature yesterday: 59 °F (at 5:00 PM)
Minimum temperature yesterday: 49 °F (at 11:00 PM)
Average temperature yesterday: 54 °F

Past Weeks' High & Low Weather Summary

 TemperatureHumidityPressure
High75 °F (Sep 17, 3:00 PM)99% (Sep 13, 10:00 AM)30.27 "Hg (Sep 13, 10:00 AM)
Low44 °F (Sep 23, 5:00 AM)52% (Sep 10, 3:00 PM)29.80 "Hg (Sep 18, 6:00 PM)
Average60 °F81%30.05 "Hg
* Reported Sep 8 3:00 PM — Sep 23 3:00 PM, Siegburg, Weather by CustomWeather, © 2014

Note: Actual official high and low records may vary slightly from our data, if they occured in-between our weather recording intervals... More about our weather records

Advertising

Siegburg weather history for previous 24 hours

 ConditionsComfort  
Time TempWeatherWind HumidityBarometerVisibility
3:00 PM
Sep 23
59 °FPassing clouds.2 mph57%30.15 "Hg22 mi
2:00 PM58 °FScattered clouds.2 mph56%30.16 "Hg22 mi
1:00 PM58 °FScattered clouds.2 mph60%30.18 "Hg22 mi
12:00 PM56 °FPassing clouds.2 mph62%30.19 "Hg16 mi
11:00 AM54 °FPassing clouds.2 mph69%30.20 "Hg9 mi
10:00 AM51 °FPartly sunny.3 mph80%30.21 "Hg6 mi
9:00 AM49 °FScattered clouds.2 mph88%30.20 "Hg6 mi
8:00 AM46 °FOvercast.3 mph91%30.21 "Hg6 mi
7:00 AM45 °FPassing clouds.2 mph92%30.21 "Hg6 mi
6:00 AM45 °FClear.3 mph93%30.20 "Hg7 mi
5:00 AM44 °FFog.3 mph93%30.20 "Hg3 mi
4:00 AM46 °FFog.3 mph89%30.20 "Hg4 mi
3:00 AM47 °FPassing clouds.2 mph86%30.21 "Hg6 mi
2:00 AM47 °FClear.3 mph86%30.22 "Hg6 mi
1:00 AM48 °FClear.2 mph82%30.23 "Hg7 mi
12:00 AM49 °FClear.2 mph79%30.21 "Hg10 mi
11:00 PM
Sep 22
49 °FClear.2 mph80%30.22 "Hg10 mi
10:00 PM51 °FClear.2 mph76%30.20 "Hg12 mi
9:00 PM51 °FPassing clouds.2 mph74%30.19 "Hg16 mi
8:00 PM53 °FPassing clouds.2 mph72%30.18 "Hg14 mi
7:00 PM56 °FScattered clouds.3 mph65%30.16 "Hg16 mi
6:00 PM58 °FScattered clouds.6 mph60%30.14 "Hg16 mi
5:00 PM59 °FPartly sunny.8 mph62%30.13 "Hg16 mi
4:00 PM59 °FScattered clouds.8 mph61%30.13 "Hg16 mi
Weather by CustomWeather, © 2014

See weather overviewHow to use our weather pages